sat.trackr.live / text

‹ back to catalog

KUIPER-00027

NORAD 63740 · 2025-088S

PAYLOAD ACTIVE UNKNOWN

§ Identity

Operator
Country
US
Launch date
2025-04-28
Launch site
AFETR
Launch vehicle
Mass (kg)
RCS (m²)

External: N2YO · Heavens-Above · Gunter

§ Orbital elements

Epoch: 2026-09-21T10:18:21.434400Z

Period
97.30 min
Inclination
51.9027°
Eccentricity
0.0000374
Mean motion
14.79931196 rev/d
Perigee alt
629.3 km
Apogee alt
629.8 km
Semi-major
7,007.7 km
B*
1.2931e-4
RAAN
310.0451°
Arg perigee
68.8757°
Mean anomaly
291.2246°
Rev number
7,660

§ Raw data

KUIPER-000271 63740U 25088S   26264.42941475  .00000765  00000+0  12931-3 0  99952 63740  51.9027 310.0451 0000374  68.8757 291.2246 14.79931196 76600

JSON: /api/v1/satellites/63740 · /tle

For live sub-satellite position, see the globe view (requires WebGL).

§ Visibility from observer

Set your observer location to see the next 7 days of passes ≥ 10°. The values pass through the URL so the page stays shareable.

No JS? Fill the form by hand. The geolocation button needs JavaScript.